Location: Poughquag
(41.6090°N, 73.6820°W)
Time: 14:27:29
(UTC-05:00)

ISS - Visible Passes

Search period start: 19 November 2018 00:00
Search period end: 29 November 2018 00:00
Orbit: 401 x 408 km, 51.6° (Epoch: 20 November)

Date Brightness Start Highest point End Pass type
(mag) Time Alt. Az. Time Alt. Az. Time Alt. Az.
22 Nov -1.1 18:50:47 10° SW 18:51:31 16° SW 18:51:31 16° SW visible
23 Nov -2.7 17:59:04 10° SSW 18:01:51 29° SE 18:01:51 29° SE visible
24 Nov -1.8 17:07:54 10° S 17:09:58 16° SE 17:12:02 10° E visible
24 Nov -1.9 18:42:55 10° WSW 18:44:47 30° W 18:44:47 30° W visible
25 Nov -3.9 17:50:43 10° SW 17:53:58 74° SE 17:54:56 42° ENE visible
26 Nov -3.0 16:58:50 10° SSW 17:01:52 37° SE 17:04:55 10° ENE visible
26 Nov -2.0 18:35:27 10° W 18:37:40 27° NW 18:37:40 27° NW visible
27 Nov -3.2 17:42:55 10° WSW 17:46:05 48° NNW 17:47:39 25° NNE visible
28 Nov -1.6 18:28:12 10° WNW 18:30:15 19° NNW 18:30:15 19° NNW visible
